Overview Statistics Trail Chart Weather Telemetry Raw packets
 

This is the latest recevied weather packets stored in our database for station/object SP9MUF-14. If no packets are shown the sender has not sent any weather packets the latest 10 day(s).

<< 21 22 23 24 25 26 27 >>
Time Temp. Humidity Pressure Rain* Wind** Luminosity Snow
1788097558 28.89° C 37% 1014.2 hPa 0 mm - 357 W/m² -
1788097256 27.78° C 36% 1014.2 hPa 0 mm - 368 W/m² -
1788096954 27.78° C 37% 1014.4 hPa 0 mm - 381 W/m² -
1788096652 27.78° C 39% 1014.3 hPa 0 mm - 390 W/m² -
1788096048 27.78° C 41% 1014.4 hPa 0 mm - 419 W/m² -
1788095444 27.78° C 38% 1014.4 hPa 0 mm - 444 W/m² -
1788095141 27.78° C 42% 1014.5 hPa 0 mm - 472 W/m² -
1788094839 27.78° C 43% 1014.6 hPa 0 mm - 490 W/m² -
1788094537 26.67° C 44% 1014.6 hPa 0 mm - 511 W/m² -
1788094235 26.67° C 43% 1014.6 hPa 0 mm - 129 W/m² -
1788093631 26.67° C 45% 1014.7 hPa 0 mm - 519 W/m² -
1788093026 26.67° C 44% 1014.8 hPa 0 mm - 522 W/m² -
1788092422 26.67° C 44% 1014.8 hPa 0 mm - 549 W/m² -
1788092120 26.67° C 44% 1014.9 hPa 0 mm - 567 W/m² -
1788091818 26.67° C 43% 1014.8 hPa 0 mm - 589 W/m² -
1788091214 26.67° C 45% 1014.9 hPa 0 mm - 126 W/m² -
1788090610 26.67° C 44% 1015 hPa 0 mm - 596 W/m² -
1788090006 25.56° C 44% 1015 hPa 0 mm - 123 W/m² -
1788089401 26.67° C 47% 1015.2 hPa 0 mm - 622 W/m² -
1788089099 25.56° C 47% 1015.3 hPa 0 mm - 633 W/m² -
1788088797 26.67° C 47% 1015.5 hPa 0 mm - 614 W/m² -
1788088193 25.56° C 46% 1015.5 hPa 0 mm - 618 W/m² -
1788087891 25.56° C 49% 1015.5 hPa 0 mm - 624 W/m² -
1788087589 25.56° C 48% 1015.5 hPa 0 mm - 621 W/m² -
1788086682 26.67° C 46% 1015.6 hPa 0 mm - 632 W/m² -

* Rain latest hour (hover to see other rain measurements)
** Current wind speed in m/s (hover to see current wind gust speed)